Mullan Pass, ID

7:28 AM PDT on October 15, 2019 (GMT -0700)
Mullan Pass

Weather History for KMLP - August, 2019

Change the Weather History Date:

Friday, August 2, 2019

  Actual Average (K3TH) Record (K3TH)
Temperature  
Mean Temperature 68 °F -  
Max Temperature 75 °F 85 °F 97 °F (1999)
Min Temperature 59 °F 57 °F 50 °F (2002)
Cooling Degree Days 2    
Growing Degree Days 18 (Base 50)    
Moisture  
Dew Point 38 °F    
Average Humidity 37    
Maximum Humidity 51    
Minimum Humidity 26    
Precipitation  
Precipitation 0.00 in - - ()
Sea Level Pressure  
Sea Level Pressure 29.92 in    
Wind  
Wind Speed 5 mph (West)    
Max Wind Speed 7 mph    
Max Gust Speed -    
Visibility 10 miles    
Events      
Averages and records for this station are not official NWS values.
T = Trace of Precipitation, MM = Missing Value Source: NWS Daily Summary

Daily Weather History Graph

Daily Weather History Graph

Search for Another Location

Airport or City:

Astronomy

Aug. 02, 2019 Rise Set
Actual Time 5:21 AM PDT 8:15 PM PDT
Civil Twilight 4:46 AM PDT 8:50 PM PDT
Nautical Twilight 4:00 AM PDT 9:36 PM PDT
Astronomical Twilight 3:04 AM PDT 10:31 PM PDT
Moon 7:09 AM PDT (8/2) 9:39 PM PDT (8/2)
Length of Visible Light 16h 04m
Length of Day
14h 53m
Waxing Crescent, 4% of the Moon is Illuminated
Aug 2
Waxing Crescent
Aug 7
First Quarter
Aug 15
Full
Aug 23
Last Quarter
Aug 30
New

Hourly Weather History & Observations

Time (PDT) Temp. Dew Point Humidity Pressure Visibility Wind Dir Wind Speed Gust Speed Precip Events Conditions
12:53 AM 64.9 °F 35.1 °F 33% 29.88 in 10.0 mi South 5.8 mph - N/A   Clear
1:53 AM 64.9 °F 36.0 °F 34% 29.88 in 10.0 mi SSE 5.8 mph - N/A   Partly Cloudy
2:53 AM 64.0 °F 37.9 °F 38% 29.88 in 10.0 mi South 3.5 mph - N/A   Partly Cloudy
3:53 AM 64.9 °F 28.9 °F 26% 29.88 in 10.0 mi Variable 3.5 mph - N/A   Clear
4:53 AM 64.0 °F 28.0 °F 26% 29.88 in 10.0 mi Variable 3.5 mph - N/A   Clear
5:53 AM 62.1 °F 33.1 °F 34% 29.90 in 10.0 mi NW 4.6 mph - N/A   Partly Cloudy
6:53 AM 61.0 °F 36.0 °F 39% 29.92 in 10.0 mi NNW 5.8 mph - N/A   Partly Cloudy
7:53 AM 63.0 °F 36.0 °F 37% 29.94 in 10.0 mi Variable 3.5 mph - N/A   Partly Cloudy
8:53 AM 66.0 °F 39.0 °F 37% 29.96 in 10.0 mi North 3.5 mph - N/A   Clear
9:53 AM 68.0 °F 39.9 °F 36% 29.95 in 10.0 mi North - - N/A   Clear
10:53 AM 68.0 °F 37.9 °F 33% 29.95 in 10.0 mi Variable 4.6 mph - N/A   Clear
11:53 AM 69.1 °F 39.0 °F 33% 29.94 in 10.0 mi NW 4.6 mph - N/A   Clear
12:53 PM 72.0 °F 41.0 °F 33% 29.93 in 10.0 mi Variable 5.8 mph - N/A   Clear
1:53 PM 73.0 °F 42.1 °F 33% 29.93 in 10.0 mi Calm Calm - N/A   Clear
2:53 PM 72.0 °F 39.0 °F 30% 29.92 in 10.0 mi Variable 4.6 mph - N/A   Clear
3:53 PM 75.0 °F 42.1 °F 31% 29.89 in 10.0 mi Variable 3.5 mph - N/A   Clear
4:53 PM 73.0 °F 42.1 °F 33% 29.90 in 10.0 mi NW 4.6 mph - N/A   Clear
5:53 PM 70.0 °F 42.1 °F 36% 29.91 in 10.0 mi Variable 6.9 mph - N/A   Clear
6:53 PM 66.9 °F 42.1 °F 40% 29.92 in 10.0 mi Variable 3.5 mph - N/A   Clear
7:53 PM 63.0 °F 42.1 °F 46% 29.94 in 10.0 mi Variable 4.6 mph - N/A   Clear
8:53 PM 62.1 °F 41.0 °F 46% 29.94 in 10.0 mi Variable 3.5 mph - N/A   Clear
9:53 PM 61.0 °F 39.9 °F 46% 29.94 in 10.0 mi West 5.8 mph - N/A   Partly Cloudy
10:53 PM 60.1 °F 39.9 °F 47% 29.96 in 10.0 mi WSW 5.8 mph - N/A   Clear
11:53 PM 59.0 °F 41.0 °F 51% 29.96 in 10.0 mi SW 6.9 mph - N/A   Clear